Regional Weather Roundup
Issued by NWS

Home | Current Version | Previous Version | Graphics & Text | Print | Product List | Glossary On
Versions: 1 2 3 4 5 6 7 8 9 10 11 12 13 14 15 16 17 18 19 20 21 22 23 24 25 26 27 28 29 30 31 32 33 34 35 36 37 38 39 40 41 42 43 44 45 46 47 48 49 50
209
ASUS43 KLSX 280457
RWRMO

WEATHER SUMMARY FOR MISSOURI
NATIONAL WEATHER SERVICE SPRINGFIELD MO
1200 AM CDT WED JUN 28 2017

NOTE: "FAIR" INDICATES FEW OR NO CLOUDS BELOW 12,000 FEET WITH NO
       SIGNIFICANT WEATHER AND/OR OBSTRUCTIONS TO VISIBILITY.
       CURRENT SKY AND/OR WEATHER CONDITIONS ARE NOT AVAILABLE FOR
       CHILLICOTHE AND FARMINGTON.

MOZ001>031-035>038-043-044-053-054-280600-
...NORTHERN AND WESTERN MISSOURI...

CITY           SKY/WX    TMP DP  RH WIND       PRES   REMARKS
KANSAS CTY INT CLEAR     74  66  76 S14G24    29.89F
LEE`S SUMMIT   CLEAR     74  65  73 S14       29.92F
ST JOSEPH      CLOUDY    74  68  81 S15G21    29.86S
CHILLICOTHE      N/A     74  65  73 S7        29.93F

$$
MOZ066>068-077>081-088>096-101>105-280600-
...SOUTHWEST MISSOURI...

CITY           SKY/WX    TMP DP  RH WIND       PRES   REMARKS
SPRINGFIELD    CLEAR     71  64  78 S13       30.01R
JOPLIN         CLEAR     74  65  73 S12       29.97R

$$
MOZ032>034-039>042-045>050-055>058-069>072-280600-
...CENTRAL MISSOURI...

CITY           SKY/WX    TMP DP  RH WIND       PRES   REMARKS
COLUMBIA       NOT AVBL
JEFFERSON CITY PTCLDY    73  62  68 SE9       29.99R
ROLLA          CLEAR     69  63  81 S10       30.03R
SEDALIA        CLOUDY    74  66  76 S10       29.97S

$$
MOZ051-052-059>065-280600-
...EAST CENTRAL MISSOURI...

CITY           SKY/WX    TMP DP  RH WIND       PRES   REMARKS
ST LOUIS INTL  CLEAR     74  53  48 S13G22    30.05R

$$
MOZ072>076-082>087-097>100-106>115-280600-
...SOUTH CENTRAL AND SOUTHEAST MISSOURI...

CITY           SKY/WX    TMP DP  RH WIND       PRES   REMARKS
CAPE GIRARDEAU CLEAR     64  58  80 CALM      30.06S
POPLAR BLUFF   CLEAR     66  65  96 CALM      30.05S
WEST PLAINS    CLEAR     67  62  84 SE3       30.08R

$$



USA.gov is the U.S. government's official web portal to all federal, state and local government web resources and services.